Temp
-2 -2 -2 -2 -2 -3 -3 -3 -4 -4 -5 -5 -5 -5 -5 -5 -4 -4 -4 -5 -5 -5 -5 -5 -5 -5 -6 -6 -6 -6 -6 -6 -6 -6 -6 -6 -6 -6 -5 -6 -6 -6 -6
-2 -2 -2 -2 -3 -3 -4 -3 -4 -4 -5 -5 -6 -5 -5 -5 -5 -5 -5 -5 -5 -5 -6 -6 -6 -6 -6 -6 -6 -6 -6 -6 -6 -6 -6 -6 -6 -5 -5 -6 -6 -5 -6
-2 -2 -2 -2 -3 -4 -4 -5 -5 -5 -6 -5 -5 -5 -5 -5 -5 -5 -5 -5 -5 -6 -5 -6 -6 -6 -6 -6 -6 -6 -6 -6 -6 -6 -6 -6 -6 -6 -5 -6 -6 -6 -6
-2 -2 -2 -2 -3 -3 -4 -5 -6 -6 -6 -6 -6 -6 -6 -6 -6 -6 -5 -6 -6 -6 -6 -6 -6 -7 -7 -7 -6 -6 -6 -7 -7 -7 -7 -7 -7 -6 -6 -6 -6 -6 -6
-1 -1 -2 -3 -3 -3 -4 -5 -5 -6 -6 -7 -7 -6 -6 -6 -6 -6 -5 -5 -6 -7 -7 -7 -7 -7 -7 -7 -7 -7 -7 -7 -7 -7 -7 -7 -7 -7 -7 -7 -6 -6 -6
-2 -1 -1 -2 -2 -3 -3 -4 -4 -5 -6 -6 -7 -6 -6 -6 -7 -6 -6 -6 -5 -6 -6 -7 -7 -7 -7 -7 -7 -7 -7 -8 -8 -8 -8 -8 -7 -7 -7 -7 -6 -6 -6
-3 -2 -1 -2 -2 -2 -2 -3 -4 -4 -4 -5 -6 -6 -6 -6 -7 -7 -6 -7 -6 -6 -5 -6 -7 -7 -7 -7 -7 -7 -7 -8 -8 -8 -8 -8 -8 -8 -7 -7 -7 -7 -6
-3 -3 -3 -2 -2 -2 -2 -2 -3 -4 -4 -4 -5 -6 -6 -7 -7 -7 -6 -7 -6 -7 -6 -6 -6 -7 -7 -7 -7 -7 -8 -8 -8 -8 -8 -8 -8 -8 -8 -8 -8 -7 -7
-4 -3 -3 -3 -3 -2 -2 -2 -3 -3 -4 -4 -4 -6 -6 -7 -6 -7 -7 -8 -7 -7 -7 -7 -7 -7 -8 -8 -8 -7 -7 -7 -8 -8 -9 -8 -9 -8 -8 -8 -8 -7 -7
-4 -4 -4 -4 -3 -3 -3 -2 -2 -3 -4 -4 -4 -4 -5 -7 -7 -8 -8 -9 -8 -8 -8 -8 -8 -7 -7 -8 -8 -8 -7 -7 -7 -8 -8 -8 -8 -8 -8 -8 -8 -8 -7
-4 -4 -4 -4 -4 -5 -4 -3 -3 -3 -4 -4 -5 -5 -5 -6 -6 -7 -7 -8 -9 -8 -9 -9 -8 -8 -7 -8 -8 -8 -7 -7 -7 -7 -9 -8 -8 -7 -7 -7 -7 -7 -7
-5 -5 -4 -4 -4 -5 -5 -5 -5 -5 -5 -5 -5 -5 -5 -5 -5 -5 -6 -6 -7 -9 -9 -9 -9 -8 -8 -8 -8 -7 -7 -7 -8 -8 -8 -9 -7 -7 -7 -7 -7 -7 -7
-4 -5 -6 -6 -5 -5 -5 -5 -5 -5 -5 -5 -5 -5 -5 -5 -6 -6 -7 -7 -8 -8 -8 -7 -8 -8 -8 -8 -7 -7 -7 -7 -8 -8 -8 -8 -7 -7 -7 -6 -7 -8 -8
-6 -6 -6 -6 -7 -7 -6 -6 -6 -6 -6 -6 -6 -6 -6 -6 -6 -7 -7 -7 -7 -7 -7 -7 -7 -7 -7 -8 -8 -7 -7 -7 -7 -7 -8 -8 -7 -7 -7 -6 -7 -8 -8
-5 -6 -6 -6 -7 -6 -7 -7 -6 -6 -6 -6 -6 -6 -6 -6 -6 -6 -6 -6 -7 -7 -7 -7 -7 -7 -8 -7 -7 -8 -8 -8 -8 -7 -8 -8 -8 -8 -8 -8 -8 -8 -8
-5 -6 -6 -7 -8 -7 -7 -7 -7 -7 -7 -6 -7 -7 -7 -7 -8 -8 -7 -8 -8 -8 -8 -7 -7 -7 -7 -8 -7 -8 -8 -8 -8 -7 -7 -7 -8 -8 -8 -8 -7 -8 -8
-5 -5 -6 -7 -6 -7 -6 -7 -7 -7 -7 -7 -8 -8 -8 -8 -9 -9 -8 -8 -8 -8 -8 -8 -7 -7 -7 -8 -8 -8 -8 -8 -8 -7 -7 -7 -7 -8 -8 -8 -8 -8 -8
-7 -7 -7 -7 -7 -7 -7 -7 -7 -7 -8 -8 -8 -8 -9 -9 -9 -9 -9 -8 -8 -7 -8 -8 -8 -7 -7 -7 -8 -8 -8 -8 -8 -8 -7 -7 -7 -8 -8 -8 -8 -8 -9
-6 -7 -8 -8 -8 -8 -8 -8 -8 -8 -8 -9 -9 -9 -9 -9 -9 -9 -9 -9 -8 -8 -8 -8 -8 -7 -7 -7 -7 -8 -8 -8 -8 -8 -8 -8 -7 -7 -8 -8 -7 -8 -8
-8 -8 -8 -8 -8 -8 -9 -9 -9 -9 -9 -9 -9 -9 -10 -10 -9 -9 -9 -9 -9 -9 -8 -8 -8 -7 -7 -7 -7 -8 -8 -7 -7 -8 -7 -8 -7 -7 -8 -9 -8 -8 -9
-8 -8 -8 -9 -9 -9 -9 -9 -9 -9 -10 -10 -10 -10 -10 -10 -10 -10 -9 -9 -9 -9 -8 -8 -7 -7 -7 -7 -7 -7 -8 -8 -8 -8 -8 -8 -8 -8 -9 -9 -9 -8 -9
-9 -9 -9 -9 -9 -10 -10 -10 -10 -10 -10 -9 -9 -9 -10 -10 -10 -10 -9 -9 -9 -8 -8 -8 -7 -7 -7 -7 -7 -8 -7 -7 -8 -8 -8 -9 -9 -9 -10 -10 -10 -9 -8
-10 -10 -10 -10 -10 -10 -10 -10 -10 -10 -10 -10 -10 -10 -11 -10 -10 -10 -10 -9 -9 -8 -8 -8 -7 -7 -7 -7 -8 -8 -8 -9 -9 -9 -9 -8 -9 -10 -10 -10 -11 -10 -9
-10 -10 -10 -10 -11 -11 -11 -11 -11 -11 -10 -10 -10 -10 -10 -10 -10 -10 -9 -9 -9 -8 -8 -8 -8 -7 -8 -8 -8 -9 -9 -9 -9 -10 -9 -9 -10 -10 -11 -11 -11 -11 -10
-10 -10 -10 -11 -11 -11 -11 -11 -11 -11 -11 -11 -11 -11 -11 -11 -10 -10 -10 -9 -9 -9 -8 -8 -8 -8 -8 -9 -9 -10 -10 -10 -10 -10 -10 -10 -10 -10 -11 -11 -12 -11 -11
-10 -10 -11 -11 -11 -12 -11 -11 -11 -11 -11 -11 -11 -11 -11 -11 -11 -10 -10 -10 -9 -9 -9 -9 -9 -9 -10 -10 -10 -10 -10 -10 -10 -10 -10 -10 -10 -11 -11 -12 -11 -12 -12
Height
5951 5951 5951 5951 5951 5950 5950 5949 5948 5946 5945 5945 5945 5944 5944 5943 5942 5941 5941 5940 5938 5937 5936 5935 5933 5931 5930 5929 5928 5925 5924 5923 5923 5922 5921 5920 5918 5916 5921 5917 5913 5905 5914
5951 5951 5951 5951 5950 5948 5948 5948 5948 5948 5947 5946 5945 5944 5943 5942 5942 5941 5940 5939 5939 5938 5936 5934 5932 5930 5929 5927 5926 5925 5924 5921 5920 5917 5916 5915 5913 5913 5915 5912 5911 5910 5908
5950 5950 5950 5950 5949 5949 5947 5947 5947 5947 5947 5946 5945 5944 5943 5941 5940 5939 5938 5937 5936 5935 5933 5931 5929 5927 5926 5925 5923 5920 5919 5917 5916 5915 5914 5912 5909 5908 5910 5912 5908 5904 5905
5950 5949 5948 5947 5947 5947 5947 5946 5946 5945 5945 5945 5944 5942 5941 5940 5939 5937 5936 5935 5933 5932 5932 5930 5928 5926 5924 5922 5921 5920 5916 5913 5910 5910 5910 5908 5907 5907 5907 5908 5908 5905 5902
5946 5950 5949 5947 5946 5945 5946 5945 5945 5944 5943 5942 5940 5939 5938 5939 5938 5936 5936 5933 5932 5928 5926 5926 5925 5922 5921 5921 5919 5918 5916 5913 5909 5906 5904 5904 5903 5903 5903 5904 5903 5901 5900
5941 5941 5942 5946 5945 5944 5943 5943 5941 5941 5940 5938 5937 5935 5935 5935 5934 5933 5931 5930 5930 5928 5924 5921 5920 5919 5917 5916 5916 5915 5913 5911 5907 5905 5902 5899 5897 5896 5895 5895 5895 5894 5894
5944 5942 5941 5940 5941 5941 5941 5940 5939 5937 5936 5934 5932 5932 5932 5931 5929 5928 5930 5930 5928 5927 5924 5920 5916 5914 5912 5910 5910 5910 5908 5906 5903 5901 5898 5895 5892 5890 5889 5888 5887 5885 5883
5940 5941 5938 5939 5938 5937 5937 5938 5935 5933 5931 5930 5929 5927 5927 5926 5923 5924 5924 5923 5923 5919 5917 5915 5912 5909 5907 5904 5903 5903 5902 5900 5898 5895 5892 5890 5887 5884 5881 5879 5878 5879 5877
5937 5936 5933 5935 5934 5933 5932 5933 5932 5930 5928 5925 5924 5922 5919 5917 5918 5917 5916 5916 5913 5912 5910 5908 5905 5901 5899 5898 5896 5895 5895 5893 5891 5889 5886 5884 5882 5879 5876 5873 5870 5869 5869
5932 5932 5931 5927 5927 5927 5925 5925 5928 5926 5923 5921 5918 5914 5912 5911 5908 5909 5906 5905 5903 5901 5899 5898 5896 5894 5892 5891 5890 5889 5887 5885 5884 5883 5879 5876 5875 5873 5868 5865 5863 5860 5857
5927 5926 5926 5925 5921 5919 5919 5916 5920 5919 5918 5914 5911 5908 5904 5902 5900 5899 5897 5896 5893 5892 5889 5887 5884 5881 5879 5879 5880 5881 5878 5875 5874 5872 5870 5867 5865 5865 5861 5858 5854 5851 5846
5919 5918 5916 5917 5920 5918 5914 5912 5912 5911 5911 5908 5904 5901 5898 5894 5893 5890 5888 5884 5881 5880 5879 5876 5873 5871 5869 5867 5868 5869 5868 5865 5864 5860 5853 5858 5857 5856 5853 5849 5845 5840 5835
5909 5909 5908 5907 5908 5907 5905 5904 5902 5900 5899 5899 5896 5893 5890 5886 5883 5879 5876 5875 5874 5871 5868 5865 5862 5861 5859 5857 5856 5857 5858 5855 5853 5852 5851 5849 5849 5848 5844 5838 5832 5828 5828
5899 5898 5898 5899 5899 5898 5898 5898 5897 5893 5889 5886 5885 5883 5880 5877 5873 5871 5867 5864 5861 5859 5856 5852 5850 5848 5848 5848 5847 5847 5846 5845 5844 5844 5842 5841 5840 5839 5835 5827 5818 5819 5820
5889 5889 5888 5890 5890 5889 5888 5887 5887 5885 5881 5877 5874 5872 5869 5867 5863 5860 5857 5853 5850 5846 5844 5841 5839 5837 5836 5836 5836 5834 5836 5835 5834 5834 5832 5832 5832 5830 5827 5820 5812 5814 5817
5887 5891 5889 5886 5883 5882 5879 5877 5874 5873 5871 5868 5864 5860 5857 5854 5851 5848 5845 5842 5838 5834 5830 5829 5828 5827 5825 5825 5825 5824 5824 5824 5823 5823 5822 5821 5821 5821 5819 5816 5813 5810 5810
5880 5879 5880 5878 5872 5872 5870 5864 5863 5860 5858 5855 5851 5848 5844 5841 5838 5835 5832 5828 5825 5822 5820 5816 5816 5815 5814 5814 5814 5813 5811 5812 5813 5813 5812 5811 5811 5810 5810 5809 5807 5806 5802
5870 5870 5867 5863 5859 5857 5853 5852 5850 5847 5844 5840 5837 5835 5831 5828 5825 5821 5817 5814 5810 5807 5805 5804 5802 5802 5801 5801 5800 5800 5799 5799 5800 5800 5801 5802 5800 5800 5800 5800 5801 5800 5797
5860 5857 5853 5847 5846 5842 5840 5838 5836 5833 5829 5827 5824 5820 5817 5814 5810 5806 5802 5798 5794 5792 5790 5790 5789 5788 5787 5786 5785 5786 5786 5787 5787 5788 5789 5789 5789 5789 5789 5789 5790 5790 5790
5844 5839 5837 5836 5832 5829 5827 5824 5821 5819 5816 5813 5809 5805 5801 5798 5795 5791 5787 5784 5780 5778 5776 5776 5775 5774 5773 5771 5771 5771 5772 5774 5774 5775 5776 5776 5775 5775 5777 5778 5779 5779 5780
5829 5828 5824 5822 5819 5816 5813 5810 5807 5804 5801 5798 5795 5791 5787 5783 5780 5778 5775 5771 5768 5766 5765 5763 5761 5760 5759 5758 5759 5759 5758 5759 5759 5760 5762 5762 5762 5763 5764 5767 5768 5769 5770
5818 5816 5814 5811 5808 5805 5802 5799 5795 5792 5789 5785 5780 5776 5771 5769 5766 5764 5762 5760 5757 5755 5752 5749 5747 5746 5746 5745 5744 5745 5746 5744 5745 5747 5748 5748 5748 5751 5751 5753 5758 5759 5760
5805 5803 5802 5800 5797 5794 5790 5787 5783 5780 5777 5772 5768 5763 5759 5756 5753 5752 5751 5748 5746 5743 5739 5736 5733 5732 5731 5731 5731 5732 5731 5726 5732 5734 5735 5736 5738 5740 5740 5741 5744 5751 5751
5794 5791 5789 5786 5783 5780 5777 5774 5771 5768 5764 5761 5757 5753 5749 5746 5743 5742 5740 5737 5734 5730 5726 5722 5720 5719 5718 5718 5717 5720 5721 5722 5723 5723 5721 5723 5725 5727 5728 5731 5735 5737 5740
5779 5778 5775 5774 5771 5768 5765 5762 5759 5756 5753 5750 5747 5743 5740 5738 5735 5732 5728 5726 5722 5717 5713 5711 5710 5708 5706 5706 5706 5707 5708 5709 5711 5709 5706 5706 5711 5714 5714 5719 5720 5724 5728
5767 5766 5764 5762 5760 5757 5753 5751 5748 5745 5742 5739 5736 5734 5732 5729 5726 5722 5718 5714 5709 5705 5701 5699 5698 5697 5695 5695 5695 5696 5695 5696 5697 5697 5693 5695 5698 5699 5703 5706 5710 5715 5717
Wind_Speed
6 8 10 12 12 12 11 14 14 13 13 11 13 15 16 14 13 12 12 10 11 13 14 14 16 16 16 15 16 17 17 18 17 17 19 17 16 17 15 18 20 27 16
8 9 10 12 13 13 14 13 14 13 12 12 13 14 16 15 14 12 12 12 11 12 13 15 14 13 14 15 16 16 15 17 16 18 17 18 19 17 16 18 13 15 11
6 10 11 11 12 12 14 14 14 14 12 8 10 11 11 13 14 13 13 10 9 11 13 11 13 13 13 10 11 14 14 16 16 16 19 18 19 20 18 18 14 14 11
2 7 9 11 12 13 12 14 17 17 13 10 11 12 10 12 12 13 12 15 14 10 12 12 12 12 13 14 14 13 14 16 19 18 18 20 19 19 20 17 17 18 20
14 4 3 8 11 13 13 12 14 16 16 10 13 15 14 13 15 17 14 15 13 11 9 9 12 14 14 15 13 15 16 17 18 20 21 20 20 20 19 20 20 21 21
21 20 17 8 7 12 14 13 15 16 16 17 16 20 24 21 17 20 18 16 18 17 17 16 17 15 15 19 19 21 22 22 24 23 24 24 22 23 21 21 19 20 25
19 20 19 18 15 13 14 14 13 18 18 18 22 24 24 22 25 30 23 17 22 25 25 23 18 22 18 17 20 24 26 28 27 24 26 27 28 28 26 25 25 25 26
20 19 20 19 19 18 18 16 15 17 21 22 22 24 22 22 27 28 22 23 23 23 30 28 26 20 23 23 24 23 27 30 29 28 29 30 33 31 31 29 26 25 25
21 23 23 22 21 23 23 21 19 19 20 23 24 23 22 23 25 20 18 23 32 28 28 28 30 24 22 27 30 33 30 33 32 27 29 30 33 34 31 29 31 31 28
28 29 27 30 28 27 27 27 24 24 23 23 24 26 26 26 30 31 30 28 36 35 23 29 30 30 28 28 31 36 38 37 36 29 31 31 33 32 30 32 35 37 36
29 31 33 30 32 30 29 31 29 27 26 27 28 29 30 30 32 33 35 37 38 31 36 37 36 35 34 34 34 37 40 42 40 35 33 31 31 31 33 34 36 38 36
32 32 35 36 32 31 32 31 29 28 28 29 31 31 33 33 32 34 37 39 41 42 41 44 44 39 37 40 38 32 40 40 36 37 34 30 31 32 38 39 39 40 29
36 39 40 42 43 41 40 38 38 36 36 35 35 36 35 36 37 38 40 41 43 44 43 45 46 46 44 44 42 33 31 35 39 38 40 35 32 36 38 43 42 39 25
39 40 41 39 37 37 37 37 39 42 41 41 41 40 39 39 40 41 43 45 46 46 46 46 46 44 42 42 41 38 36 37 39 36 35 31 30 34 34 40 32 32 20
42 43 44 43 36 33 36 41 44 46 47 48 48 48 47 44 45 46 47 46 47 47 45 45 46 46 45 43 42 40 37 38 39 35 35 31 32 32 26 32 18 11 15
46 33 37 47 26 35 38 42 49 51 52 53 52 51 50 49 49 49 50 48 48 49 50 47 46 45 46 43 41 42 38 37 35 35 39 37 34 33 26 22 19 18 16
44 47 46 44 41 43 51 51 56 58 59 57 54 52 52 51 53 53 53 52 51 48 47 48 46 43 45 45 41 42 42 38 35 38 40 41 39 37 26 23 21 18 14
53 54 51 59 58 63 56 52 55 59 59 56 56 56 55 54 54 55 55 52 51 50 47 41 43 42 43 45 46 43 43 42 40 42 42 42 43 41 33 29 29 25 19
59 58 59 61 63 57 49 49 52 53 54 55 56 56 57 57 58 55 51 50 49 46 47 40 41 44 45 47 46 43 40 40 41 41 40 41 41 39 38 32 31 29 25
61 63 64 68 58 51 49 49 49 50 52 53 55 57 58 58 54 50 47 47 45 41 41 43 44 47 47 46 45 45 43 42 41 42 42 43 43 42 40 37 32 36 34
61 65 57 49 48 49 49 48 48 48 50 52 55 57 57 53 47 44 47 42 40 41 42 44 45 44 42 42 42 41 41 42 43 43 43 41 45 45 42 39 37 36 38
52 49 49 50 48 47 46 46 47 47 45 45 47 46 46 47 44 43 41 39 38 39 40 42 41 40 39 39 42 40 39 42 41 42 45 46 41 46 46 42 36 36 39
49 48 47 47 47 47 47 46 46 48 47 42 41 43 43 43 39 38 39 39 36 37 38 36 36 36 36 39 40 32 29 28 44 37 44 39 45 43 46 47 39 33 38
46 46 46 46 47 47 46 46 45 46 44 40 42 45 46 41 37 37 37 37 38 37 36 36 35 35 34 34 35 31 39 39 43 47 51 51 47 44 39 47 40 31 36
43 43 44 44 44 44 44 44 44 41 39 37 37 38 38 37 37 38 38 38 39 37 36 36 35 33 34 32 31 28 29 36 45 45 47 47 46 47 46 41 36 37 37
41 41 40 40 40 41 41 40 39 38 36 34 34 34 35 37 39 38 38 37 35 35 35 34 32 31 31 30 28 31 35 38 38 34 48 39 46 43 46 32 35 33 32
Wind_Direction
21 28 35 34 35 34 39 29 26 17 14 20 21 14 17 14 3 359 354 354 350 346 347 346 339 332 325 321 321 321 320 315 313 313 308 316 316 316 323 334 336 316 315
21 10 14 25 25 18 21 24 23 28 20 17 11 9 2 359 5 0 354 348 351 3 354 347 339 332 332 332 327 320 315 308 310 311 315 310 306 310 317 323 322 340 297
14 351 356 9 15 16 8 10 15 20 26 9 354 346 356 358 348 343 340 344 352 351 348 340 327 325 320 312 314 315 317 318 312 312 307 305 305 310 314 318 307 314 309
0 332 339 352 358 2 2 357 355 355 8 8 355 345 321 336 327 324 319 325 325 327 327 335 341 324 322 317 315 314 313 315 314 312 310 306 305 305 309 304 299 300 307
323 337 332 334 340 346 347 345 341 335 338 334 330 325 317 314 311 309 315 315 298 315 321 327 338 332 317 309 310 310 311 307 303 304 307 308 312 316 311 303 294 286 280
316 324 332 352 338 328 332 330 324 317 321 322 314 315 325 338 320 310 294 297 302 278 284 299 301 301 310 316 308 304 302 301 301 304 304 304 301 303 311 313 303 290 280
300 306 310 316 324 320 324 320 312 312 315 311 305 309 320 328 310 317 316 301 304 307 292 282 289 288 281 289 296 298 297 299 301 305 307 306 302 301 305 301 304 297 291
294 299 293 303 307 311 312 313 307 302 306 312 303 304 316 314 299 306 301 274 302 306 300 298 281 270 273 287 287 283 290 294 297 297 302 303 302 300 301 299 306 290 281
292 304 301 302 304 306 305 306 308 301 300 304 309 299 298 300 295 301 302 280 301 298 298 299 296 282 270 281 286 289 291 292 293 293 297 298 301 300 302 298 302 296 291
301 301 307 306 303 301 301 300 305 307 303 299 299 301 301 300 303 303 304 303 304 298 306 303 295 292 279 281 284 286 288 291 294 289 291 296 297 296 299 300 299 295 287
294 292 295 297 304 304 297 297 301 302 301 302 302 302 302 302 301 302 300 298 303 294 303 303 301 293 287 289 285 278 281 284 285 284 282 292 293 293 303 299 299 303 299
293 299 299 300 301 295 294 293 295 296 296 296 298 299 298 298 295 294 297 302 305 301 302 299 299 295 289 287 286 281 274 277 281 279 277 290 283 295 300 300 299 296 298
300 300 302 304 301 299 296 297 300 301 300 299 299 300 297 293 295 299 298 294 294 297 295 295 293 292 289 287 289 286 274 275 279 285 293 289 286 292 302 303 290 296 281
292 294 292 291 294 296 295 295 297 299 299 300 300 297 294 292 292 292 294 296 296 296 294 291 289 289 287 284 283 284 282 276 281 287 289 288 287 301 308 309 296 291 264
276 276 279 281 279 281 290 295 298 298 297 297 297 297 295 291 290 291 292 294 294 294 291 288 287 284 282 280 284 285 279 275 279 280 284 287 293 300 310 326 330 303 296
274 282 296 278 272 290 290 298 296 294 294 294 293 292 290 288 288 288 290 291 291 290 288 284 282 280 278 278 276 281 279 275 271 273 278 284 291 297 295 300 308 295 312
272 274 275 292 271 292 291 294 292 292 291 289 288 287 286 286 288 290 289 290 289 284 281 281 279 279 279 279 276 274 277 271 269 269 275 281 287 288 288 287 287 287 302
275 277 287 286 284 289 293 285 281 281 283 284 284 284 285 287 288 288 289 289 287 284 279 275 277 278 279 278 276 273 273 273 272 272 274 278 278 280 279 274 275 282 287
274 278 279 279 289 291 289 285 282 281 281 283 285 286 288 289 288 290 288 286 284 280 277 274 277 282 284 282 280 276 271 270 272 273 274 272 273 272 275 272 274 277 280
277 278 280 288 289 291 290 289 287 285 285 285 285 286 286 288 292 289 289 291 288 283 277 281 281 282 282 279 278 276 273 271 273 272 271 272 274 274 272 270 269 273 278
276 283 283 287 289 288 289 289 288 288 289 288 290 291 290 289 288 290 292 291 289 285 282 282 281 281 279 274 271 271 273 274 273 270 270 268 272 273 272 266 263 266 272
280 282 284 284 285 286 287 287 288 291 295 300 293 292 290 287 288 290 288 288 287 286 284 284 285 283 279 276 273 272 272 270 270 273 272 273 265 269 271 272 264 260 268
276 276 278 280 281 283 286 286 289 291 299 298 295 288 291 293 293 291 289 288 288 291 290 289 290 288 280 273 271 267 271 230 272 280 268 254 262 256 266 269 271 258 263
274 277 281 283 284 286 286 288 289 293 296 294 292 289 293 296 293 289 288 291 293 292 294 295 294 288 277 270 269 245 258 256 256 262 263 260 254 253 249 264 258 258 257
279 281 282 283 284 285 287 289 290 290 290 290 290 291 294 293 294 294 295 293 293 294 295 293 291 283 276 275 267 268 265 255 254 252 257 249 252 246 246 245 260 254 256
278 281 284 287 286 285 285 286 287 289 291 292 292 293 294 295 298 298 300 299 299 298 296 293 285 276 271 273 267 256 260 260 253 260 234 248 255 250 249 244 238 248 259